Location: Aula-Vintri
(58.3875°N, 22.4322°E)
Time: 18:15:47
(UTC+00:00)

Cosmos 1238 Rocket - Pass Details

Date: 13 October 2019
Orbit: 375 x 1033 km, 82.9° (Epoch: 20 November)

Event Time Altitude Azimuth Distance (km) Brightness Sun altitude
Rises 19:02:12 0° 347° (NNW) 3,678 7.7 -27.4°
Reaches altitude 10° 19:04:42 10° 350° (N) 2,778 6.9 -27.7°
Maximum altitude 19:11:15 68° 73° (ENE) 1,115 4.0 -28.4°
Enters shadow 19:11:17 68° 75° (ENE) 1,115 4.0 -28.4°
